STARLINK-5704, 55486

Orbit data source: Space-Track

STARLINK-5704, 55486 is a payload satellite owned by SpaceX/Seattle (US) in LEO that was launched on Thu, 02 Feb 2023 UTC via an FALCON 9 launch vehicle from the Air Force Eastern Test Range (AFETR). Payload-class satellites include a variety of spacecraft equipped with specific instruments for various scientific and technological missions. These include communications satellites like Starlink; space stations such as the ISS; scientific satellites like the Hubble; Earth observation satellites from companies like Planet Labs, Umbra, and HawkEye 360; GPS; miniature CubeSats for education and research; and military/defense satellites.

Loading next visibility...
Identifier
55486, 2023-015AP
Orbit
LEO
Country
Flag of USUS
Related business
Manufacturer
SpaceX/Seattle
Mission
Operational Commercial Communications
Bus & Motor
STARLINK, Unknown motor
Mass
305 kg wet, ~290 kg dry
Launch date (UTC)
2023-02-02 (3 years ago)
Launch vehicle
FALCON 9
Launch site
Air Force Eastern Test Range (AFETR)
Object type
Payload
Rocket body
Debris
Shape & HBR
Box + 1 Pan, 10.1 m
Radar Cross Section
13.562 m², Large (>1 m²)

Expand to show TLE details & history
Last TLE update: 15 hours ago

TLE from 15 hours ago
0 STARLINK-5704
1 55486U 23015AP  26035.37753870  .00002276  00000-0  18341-3 0  9992
2 55486  43.0017 159.8863 0001415 284.8907  75.1779 15.02548019165591
Epoch: 2026-02-04T09:03Z
TLE epoch observation values (Epoch: 2026-02-04T09:03:39.343Z)
Latitude
Longitude
-110.57262°
Altitude
558.57 km
Speed
7.584 km/s
True Right ascension
10h 39m 32s
True Declination
0° 00' 00"
Sunlit
Object was in full shadow at epoch
Visualization orbit readout
Latitude
Unknown
Longitude
Unknown
Altitude
Unknown
Speed
Unknown
Apparent Right ascension
Unknown
Apparent Declination
Unknown
Sunlit
N/A
Visualization observer readout
Local Sidereal Time
01:37:56
Azimuth
Unknown
Elevation
Unknown
Doppler factor
Unknown
Orbital elements
Apogee altitude
561.948 km
Perigee altitude
559.984 km
Semi-major axis
6,939.103 km
Eccentricity
0.00014
Inclination
43.0017°
RAAN
159.8863°
Arg. of periapsis
284.8907°
True anomaly
75.19358°
Mean anomaly
75.1779°
Eccentric anomaly
75.18574°
Mean motion
3.75481 °/min
Orbital period
95.88 mins
BSTAR
0.00018341
Loading maneuver chart data...
Computing Atmospheric mass density...
Loading historical data...
Loading historical data...
Loading historical data...
Loading historical data...
Loading historical data...
Loading historical data...
Loading historical data...

Documentation

Showing up to 5 results
|